Regional Weather Roundup
Issued by NWS Newport/Morehead, NC

Current Version | Previous Version | Graphics & Text | Print | Product List | Glossary Off
Versions: 1 2 3 4 5 6 7 8 9 10 11 12 13 14 15 16 17 18 19 20 21 22 23 24 25 26 27 28 29 30 31 32 33 34 35 36 37 38 39 40 41 42 43 44 45 46 47 48 49 50

000
ASUS42 KMHX 200622
RWRMHX
WEATHER ROUNDUP FOR EASTERN NORTH CAROLINA
NATIONAL WEATHER SERVICE NEWPORT/MOREHEAD CITY NC
200 AM EDT SUN APR 20 2014

NOTE: "FAIR" INDICATES FEW OR NO CLOUDS BELOW 12,000 FEET
WITH NO SIGNIFICANT WEATHER AND/OR OBSTRUCTIONS TO VISIBILITY

NCZ015>017-031-032-045>047-102-103-200700-
NORTH COAST

CITY           SKY/WX    TMP DP  RH WIND       PRES   REMARKS
EDENTON        LGT RAIN  50  44  80 NE7       30.17F
ELIZABETH CITY LGT RAIN  52  44  74 NE15      30.19F
KITTY HAWK     LGT RAIN  50  48  95 N10G18    30.14F
MANTEO         DRIZZLE   51  49  92 NE15G24   30.15F

$$

NCZ045>047-081-094-103-104-200700-
CENTRAL COAST

CITY           SKY/WX    TMP DP  RH WIND       PRES   REMARKS
FRISCO         LGT RAIN  53  53 100 NE12G22   30.08F FOG
SWANQUARTER      N/A     54 N/A N/A N13G21    30.09F

$$

NCZ095-097-098-100-101-200700-
SOUTHERN COAST

CITY           SKY/WX    TMP DP  RH WIND       PRES   REMARKS
BEAUFORT       CLOUDY    55  52  89 NE23G31   30.07F
CEDAR ISLAND     N/A     55 N/A N/A VRB31     30.15S
JACKSONVILLE   LGT RAIN  51  51 100 N13       30.09F
NEWPORT          N/A     54  52  94 N14G21      N/A
PINEY ISLAND   CLOUDY    57  54  89 N22G32    30.09S
WILMINGTON     CLOUDY    53  50  89 NE20G30   30.05F


$$

NCZ011>013-027>030-043-044-078>080-089-090>093-098-200700-
COASTAL PLAIN

CITY           SKY/WX    TMP DP  RH WIND       PRES   REMARKS
AHOSKIE        FAIR      51  38  62 N7        30.21F
CLINTON        RAIN      51  46  84 NE12      30.14S
ELIZABETHTOWN  DRIZZLE   50  49  97 N6        30.10F
GOLDSBORO      CLOUDY    50  46  86 NE12G21   30.13F
GREENVILLE     LGT RAIN  48  45  87 NE8       30.18F
HAVELOCK       CLOUDY    53  49  86 NE17G25   30.11S
KENANSVILLE    DRIZZLE   51  46  84 NE7       30.13S
KINSTON        DRIZZLE   49  46  90 N14G23    30.15F
NEW BERN       CLOUDY    53  50  89 NE10      30.13F
RICHLANDS      CLOUDY    52  52 100 N14G21    30.11F
ROANOKE RAPIDS NOT AVBL
ROCKY MOUNT    MOCLDY    50  45  83 CALM      30.19F
WASHINGTON     FAIR      48  44  86 NE8       30.16F
WHITEVILLE     CLOUDY    51  48  89 N12       30.07F

$$

AMZ130-135-150-152-154-156-158-170-250-252-270-ANZ085-086-088-633-658-670-200700-
MARINE OBSERVATIONS

STATION/POSITION TIME  TEMP    WIND        PRES    WAVE   SWELL
                       AIR SEA DIR/SP/G            HT/PER HT/PER
                 (UTC) (F)     (DEG/KT/KT) (MB)    (FT/S) (FT/S)
CHESAPEAKE LIGHT 0600   49      40/ 20/ 22 1023.5
BUOY 44014       0600   52 49   20/ 19/ 23 1020.8    8/ 8   3/10
DUCK             0600   50 49   20/ 21/ 23 1020.2
2E DUCK          0500      47                N/A     6/ 8   2/11
OREGON INLET     0600   50 51   10/ 12/ 17 1020.5
BUOY 44095       0600      48                N/A     9/ 9   2/11
HATTERAS CG      0600   56 56   20/ 11/ 19 1018.8
DIAMOND BUOY     NOT AVBL
CAPE LOOKOUT     0600   56      10/ 22/ 27 1017.4
BEAUFORT LAB     0600   55 58   20/ 19/ 25 1017.3
30 SE NEW RIVER  0600   59 66   30/ 29/ 37 1016.1    9/ 8   3/10
5 SE WRIGHTSVILL 0600   56 59   30/ 25/ 33 1016.0
FRYING PAN BUOY  0600   62 68   50/ 31/ 39 1013.4   11/ 7   3/11
BUOY 41001       NOT AVBL
BUOY 41002       NOT AVBL
BUOY 41004       NOT AVBL

$$



USA.gov is the U.S. government's official web portal to all federal, state and local government web resources and services.